User: anonymous   Login
Location: Strohbehn Observatory
(42.4649°N, 93.8239°W)
Time: 12:20:17
(UTC-06:00)
Language:

SL-16 R/B - Orbit

View from above orbital plane
View from above orbital plane
View from above satellite
View from above satellite

Ground track
Ground track

The orbit data is extracted from the following two-line orbital elements,

1 31793U 07029B   16338.75551934 -.00000062  00000-0 -73838-5 0  9995
2 31793  70.9774  79.6663 0002147 277.7312 192.2465 14.14376886487083
Epoch (UTC): 03 December 2016 18:07:56
Eccentricity: 0.0002147
inclination: 70.9774°
perigee height: 843 km
apogee height: 846 km
right ascension of ascending node: 79.6663°
argument of perigee: 277.7312°
revolutions per day: 14.14376886
mean anomaly at epoch: 192.2465°
orbit number at epoch: 48708

The dashed part of the orbit path shows where the satellite is in the earth's shadow,  

DLR